UAL703 KLAX-KDEN

Flight info

Callsign UAL703
Flight time 1h 37m
Altitude 37000
Route ORCKA5 LAS J146 DICEE BUMMP SSKII4
Aircraft B744/H-SDE3FGHIM1M2RWXY/LB1

Departure

Time 2026-04-25 23:27
Airport Los Angeles International Airport (KLAX)

Arrival

Time 2026-04-26 01:04
Airport Denver International Airport (KDEN)
Time Latitude Longitude Altitude Speed Heading
2026-04-25 22:56 33.94021 -118.41071 103 ft 0 kts 83°
2026-04-25 23:12 33.94020 -118.41085 102 ft 4 kts 83°
2026-04-25 23:12 33.94017 -118.41117 102 ft 4 kts 83°
2026-04-25 23:13 33.94014 -118.41143 102 ft 3 kts 84°
2026-04-25 23:13 33.94016 -118.41173 100 ft 4 kts 126°
2026-04-25 23:13 33.94034 -118.41186 104 ft 3 kts 173°
2026-04-25 23:13 33.94061 -118.41190 102 ft 3 kts 173°
2026-04-25 23:14 33.94064 -118.41190 102 ft 0 kts 173°
2026-04-25 23:19 33.94047 -118.41188 102 ft 6 kts 173°
2026-04-25 23:19 33.93986 -118.41179 103 ft 10 kts 173°
2026-04-25 23:19 33.93907 -118.41169 105 ft 12 kts 174°
2026-04-25 23:20 33.93827 -118.41158 105 ft 11 kts 174°
2026-04-25 23:20 33.93774 -118.41132 104 ft 5 kts 125°
2026-04-25 23:20 33.93768 -118.41073 104 ft 13 kts 82°
2026-04-25 23:20 33.93783 -118.40934 104 ft 19 kts 83°
2026-04-25 23:21 33.93800 -118.40773 107 ft 19 kts 83°
2026-04-25 23:21 33.93816 -118.40617 104 ft 19 kts 83°
2026-04-25 23:21 33.93831 -118.40466 105 ft 18 kts 83°
2026-04-25 23:21 33.93845 -118.40321 106 ft 17 kts 83°
2026-04-25 23:22 33.93860 -118.40181 106 ft 17 kts 82°
2026-04-25 23:22 33.93875 -118.40045 106 ft 16 kts 82°
2026-04-25 23:22 33.93890 -118.39912 106 ft 16 kts 82°
2026-04-25 23:23 33.93916 -118.39645 105 ft 16 kts 84°
2026-04-25 23:23 33.93928 -118.39515 106 ft 16 kts 83°
2026-04-25 23:23 33.93942 -118.39383 107 ft 16 kts 83°
2026-04-25 23:23 33.93958 -118.39235 103 ft 21 kts 83°
2026-04-25 23:24 33.93974 -118.39064 104 ft 20 kts 83°
2026-04-25 23:24 33.93992 -118.38898 104 ft 20 kts 82°
2026-04-25 23:24 33.94010 -118.38733 105 ft 20 kts 82°
2026-04-25 23:24 33.94026 -118.38573 106 ft 19 kts 83°
2026-04-25 23:25 33.94042 -118.38417 108 ft 19 kts 83°
2026-04-25 23:25 33.94057 -118.38262 106 ft 19 kts 83°
2026-04-25 23:25 33.94073 -118.38106 103 ft 16 kts 83°
2026-04-25 23:25 33.94072 -118.38028 103 ft 6 kts 124°
2026-04-25 23:26 33.94043 -118.38004 105 ft 4 kts 165°
2026-04-25 23:26 33.94002 -118.38005 105 ft 6 kts 203°
2026-04-25 23:26 33.93982 -118.38028 105 ft 1 kts 248°
2026-04-25 23:26 33.93978 -118.38057 104 ft 10 kts 261°
2026-04-25 23:27 33.93943 -118.38412 110 ft 88 kts 263°
2026-04-25 23:27 33.93831 -118.39486 107 ft 162 kts 263°
2026-04-25 23:27 33.93708 -118.40954 587 ft 181 kts 265°
2026-04-25 23:27 33.93589 -118.42445 1540 ft 181 kts 268°
2026-04-25 23:28 33.93419 -118.44018 2012 ft 197 kts 259°
2026-04-25 23:28 33.93191 -118.45712 2442 ft 212 kts 261°
2026-04-25 23:28 33.92751 -118.47441 3075 ft 226 kts 248°
2026-04-25 23:28 33.92134 -118.49253 3705 ft 241 kts 248°
2026-04-25 23:29 33.91476 -118.51154 4442 ft 249 kts 248°
2026-04-25 23:29 33.90796 -118.53101 5271 ft 254 kts 248°
2026-04-25 23:29 33.90103 -118.55081 6107 ft 259 kts 247°
2026-04-25 23:29 33.89405 -118.57093 6925 ft 262 kts 247°
2026-04-25 23:30 33.88705 -118.59131 7652 ft 265 kts 247°
2026-04-25 23:30 33.88007 -118.61189 7981 ft 267 kts 247°
2026-04-25 23:30 33.87215 -118.63203 7992 ft 265 kts 232°
2026-04-25 23:30 33.85808 -118.64616 8003 ft 269 kts 205°
2026-04-25 23:31 33.83974 -118.65027 8234 ft 274 kts 176°
2026-04-25 23:31 33.82171 -118.64255 9037 ft 282 kts 150°
2026-04-25 23:31 33.80709 -118.62653 9832 ft 291 kts 127°
2026-04-25 23:31 33.79890 -118.60380 10431 ft 307 kts 103°
2026-04-25 23:32 33.79916 -118.57752 10912 ft 328 kts 78°
2026-04-25 23:32 33.80855 -118.55169 11365 ft 349 kts 54°
2026-04-25 23:32 33.82600 -118.53043 11823 ft 368 kts 34°
2026-04-25 23:32 33.84799 -118.51320 12369 ft 386 kts 29°
2026-04-25 23:33 33.87128 -118.49600 13174 ft 399 kts 31°
2026-04-25 23:33 33.89387 -118.47580 14120 ft 412 kts 38°
2026-04-25 23:33 33.91579 -118.45287 14785 ft 423 kts 41°
2026-04-25 23:33 33.93640 -118.42722 14985 ft 428 kts 53°
2026-04-25 23:34 33.95340 -118.39773 15837 ft 431 kts 57°
2026-04-25 23:34 33.97000 -118.36724 16954 ft 439 kts 57°
2026-04-25 23:34 33.98723 -118.33646 18004 ft 448 kts 56°
2026-04-25 23:34 34.00521 -118.30533 18951 ft 456 kts 56°
2026-04-25 23:35 34.02343 -118.27352 19832 ft 465 kts 56°
2026-04-25 23:35 34.04174 -118.24096 20766 ft 474 kts 57°
2026-04-25 23:35 34.06043 -118.20774 21659 ft 483 kts 57°
2026-04-25 23:35 34.07955 -118.17405 22538 ft 492 kts 57°
2026-04-25 23:36 34.09909 -118.13967 23416 ft 501 kts 57°
2026-04-25 23:36 34.11215 -118.11655 23922 ft 506 kts 57°
2026-04-25 23:36 34.13883 -118.06913 24908 ft 515 kts 57°
2026-04-25 23:36 34.15911 -118.03314 25639 ft 521 kts 57°
2026-04-25 23:37 34.17952 -117.99694 26394 ft 527 kts 57°
2026-04-25 23:37 34.20058 -117.95953 27160 ft 533 kts 57°
2026-04-25 23:37 34.22121 -117.92277 27871 ft 538 kts 57°
2026-04-25 23:37 34.24230 -117.88518 28468 ft 543 kts 57°
2026-04-25 23:38 34.26358 -117.84724 29144 ft 548 kts 57°
2026-04-25 23:38 34.28504 -117.80893 29798 ft 553 kts 57°
2026-04-25 23:38 34.30671 -117.77020 30339 ft 558 kts 57°
2026-04-25 23:38 34.32854 -117.73112 30839 ft 563 kts 57°
2026-04-25 23:39 34.35059 -117.69177 31310 ft 569 kts 56°
2026-04-25 23:39 34.37401 -117.65298 31940 ft 569 kts 55°
2026-04-25 23:39 34.39681 -117.61466 32622 ft 569 kts 56°
2026-04-25 23:39 34.41980 -117.57570 33253 ft 569 kts 55°
2026-04-25 23:40 34.44331 -117.53630 33897 ft 570 kts 55°
2026-04-25 23:40 34.46629 -117.49800 34463 ft 570 kts 55°
2026-04-25 23:40 34.48949 -117.45906 34975 ft 570 kts 55°
2026-04-25 23:40 34.51258 -117.42002 35520 ft 570 kts 55°
2026-04-25 23:41 34.53570 -117.38101 36039 ft 570 kts 55°
2026-04-25 23:41 34.55887 -117.34203 36521 ft 570 kts 54°
2026-04-25 23:41 34.58204 -117.30300 36863 ft 567 kts 54°
2026-04-25 23:42 34.62759 -117.22585 36871 ft 561 kts 55°
2026-04-25 23:42 34.67377 -117.14765 36813 ft 576 kts 54°
2026-04-25 23:43 34.72082 -117.06773 36808 ft 583 kts 55°
2026-04-25 23:43 34.76034 -117.00045 36813 ft 583 kts 54°
2026-04-25 23:44 34.80745 -116.92013 36820 ft 583 kts 55°
2026-04-25 23:44 34.85403 -116.84048 36818 ft 580 kts 54°
2026-04-25 23:45 34.90120 -116.75969 36819 ft 581 kts 54°
2026-04-25 23:45 34.95220 -116.68449 36813 ft 580 kts 46°
2026-04-25 23:46 35.00759 -116.61287 36794 ft 581 kts 46°
2026-04-25 23:46 35.06244 -116.53971 36769 ft 581 kts 46°
2026-04-25 23:47 35.11712 -116.46791 36752 ft 581 kts 46°
2026-04-25 23:47 35.17186 -116.39514 36812 ft 581 kts 46°
2026-04-25 23:48 35.22658 -116.32262 36761 ft 579 kts 46°
2026-04-25 23:48 35.28110 -116.25006 36742 ft 579 kts 46°
2026-04-25 23:49 35.33565 -116.17732 36741 ft 583 kts 46°
2026-04-25 23:49 35.39040 -116.10421 36750 ft 581 kts 46°
2026-04-25 23:50 35.44496 -116.03112 36755 ft 581 kts 46°
2026-04-25 23:50 35.49953 -115.95793 36763 ft 581 kts 46°
2026-04-25 23:51 35.55391 -115.88478 36778 ft 579 kts 46°
2026-04-25 23:51 35.60821 -115.81162 36777 ft 580 kts 46°
2026-04-25 23:52 35.66238 -115.73815 36786 ft 579 kts 47°
2026-04-25 23:52 35.71589 -115.66404 36780 ft 579 kts 47°
2026-04-25 23:53 35.76937 -115.59072 36787 ft 580 kts 47°
2026-04-25 23:53 35.82304 -115.51640 36799 ft 581 kts 47°
2026-04-25 23:54 35.87652 -115.44250 36789 ft 576 kts 47°
2026-04-25 23:54 35.92971 -115.36871 36784 ft 576 kts 47°
2026-04-25 23:55 35.98304 -115.29459 36796 ft 580 kts 47°
2026-04-25 23:55 36.03661 -115.21999 36757 ft 580 kts 47°
2026-04-25 23:56 36.08462 -115.13993 36767 ft 581 kts 64°
2026-04-25 23:56 36.11464 -115.04746 36756 ft 579 kts 72°
2026-04-25 23:57 36.14296 -114.95422 36685 ft 580 kts 70°
2026-04-25 23:57 36.17196 -114.86109 36686 ft 579 kts 71°
2026-04-25 23:58 36.20021 -114.76772 36683 ft 579 kts 70°
2026-04-25 23:58 36.22846 -114.67643 36666 ft 579 kts 71°
2026-04-25 23:59 36.25671 -114.58305 36658 ft 578 kts 71°
2026-04-25 23:59 36.28517 -114.48990 36655 ft 576 kts 71°
2026-04-26 00:00 36.31327 -114.39688 36658 ft 576 kts 71°
2026-04-26 00:00 36.34143 -114.30378 36663 ft 577 kts 71°
2026-04-26 00:01 36.36950 -114.21049 36670 ft 577 kts 71°
2026-04-26 00:01 36.39727 -114.11795 36674 ft 575 kts 71°
2026-04-26 00:02 36.42520 -114.02451 36680 ft 578 kts 71°
2026-04-26 00:02 36.45311 -113.93088 36691 ft 578 kts 71°
2026-04-26 00:03 36.48093 -113.83719 36710 ft 578 kts 71°
2026-04-26 00:03 36.50867 -113.74349 36705 ft 577 kts 71°
2026-04-26 00:04 36.53632 -113.64982 36721 ft 577 kts 71°
2026-04-26 00:04 36.56390 -113.55601 36728 ft 577 kts 71°
2026-04-26 00:05 36.59140 -113.46217 36751 ft 577 kts 71°
2026-04-26 00:05 36.61885 -113.36817 36750 ft 578 kts 71°
2026-04-26 00:06 36.64622 -113.27408 36759 ft 577 kts 71°
2026-04-26 00:06 36.67344 -113.18004 36787 ft 577 kts 71°
2026-04-26 00:07 36.70062 -113.08593 36815 ft 578 kts 71°
2026-04-26 00:07 36.72774 -112.99161 36830 ft 578 kts 71°
2026-04-26 00:08 36.75481 -112.89723 36828 ft 578 kts 71°
2026-04-26 00:08 36.78180 -112.80273 36823 ft 579 kts 71°
2026-04-26 00:09 36.80866 -112.70838 36810 ft 576 kts 71°
2026-04-26 00:09 36.83522 -112.61475 36791 ft 576 kts 71°
2026-04-26 00:10 36.86190 -112.52039 36789 ft 576 kts 71°
2026-04-26 00:10 36.88849 -112.42600 36787 ft 577 kts 71°
2026-04-26 00:11 36.91499 -112.33127 36786 ft 577 kts 71°
2026-04-26 00:11 36.94155 -112.23657 36783 ft 578 kts 71°
2026-04-26 00:12 36.96801 -112.14175 36770 ft 578 kts 71°
2026-04-26 00:12 36.99442 -112.04675 36736 ft 576 kts 71°
2026-04-26 00:13 37.02076 -111.95173 36729 ft 579 kts 71°
2026-04-26 00:13 37.04706 -111.85649 36704 ft 576 kts 71°
2026-04-26 00:14 37.07302 -111.76215 36670 ft 577 kts 71°
2026-04-26 00:14 37.09921 -111.66660 36670 ft 576 kts 71°
2026-04-26 00:15 37.12519 -111.57155 36673 ft 576 kts 71°
2026-04-26 00:15 37.15089 -111.47707 36713 ft 577 kts 71°
2026-04-26 00:16 37.17670 -111.38193 36692 ft 575 kts 71°
2026-04-26 00:16 37.20243 -111.28670 36667 ft 578 kts 71°
2026-04-26 00:17 37.23089 -111.19262 36649 ft 575 kts 64°
2026-04-26 00:17 37.26794 -111.10337 36633 ft 576 kts 61°
2026-04-26 00:18 37.30319 -111.01302 36639 ft 577 kts 64°
2026-04-26 00:18 37.33913 -110.92292 36633 ft 577 kts 62°
2026-04-26 00:19 37.37483 -110.83268 36622 ft 576 kts 63°
2026-04-26 00:19 37.41030 -110.74236 36608 ft 577 kts 62°
2026-04-26 00:20 37.44595 -110.65210 36609 ft 575 kts 63°
2026-04-26 00:20 37.48121 -110.56175 36609 ft 575 kts 63°
2026-04-26 00:21 37.51662 -110.47148 36610 ft 575 kts 63°
2026-04-26 00:21 37.55177 -110.38104 36633 ft 575 kts 63°
2026-04-26 00:22 37.58686 -110.29091 36632 ft 573 kts 63°
2026-04-26 00:22 37.62160 -110.20112 36648 ft 573 kts 63°
2026-04-26 00:23 37.65653 -110.11080 36645 ft 575 kts 63°
2026-04-26 00:23 37.69148 -110.02002 36663 ft 575 kts 63°
2026-04-26 00:24 37.72637 -109.92918 36669 ft 575 kts 63°
2026-04-26 00:24 37.76123 -109.83822 36667 ft 575 kts 63°
2026-04-26 00:25 37.79591 -109.74734 36666 ft 575 kts 63°
2026-04-26 00:25 37.83067 -109.65607 36717 ft 573 kts 63°
2026-04-26 00:26 37.86521 -109.56501 36709 ft 576 kts 63°
2026-04-26 00:26 37.89977 -109.47371 36692 ft 574 kts 63°
2026-04-26 00:27 37.93429 -109.38224 36657 ft 577 kts 63°
2026-04-26 00:27 37.96852 -109.29121 36663 ft 576 kts 63°
2026-04-26 00:28 38.00288 -109.19963 36657 ft 575 kts 63°
2026-04-26 00:28 38.03712 -109.10804 36652 ft 575 kts 63°
2026-04-26 00:29 38.07128 -109.01643 36651 ft 574 kts 63°
2026-04-26 00:29 38.10566 -108.92500 36655 ft 573 kts 62°
2026-04-26 00:30 38.14134 -108.83419 36653 ft 575 kts 62°
2026-04-26 00:30 38.17702 -108.74329 36651 ft 576 kts 61°
2026-04-26 00:31 38.21271 -108.65231 36664 ft 575 kts 62°
2026-04-26 00:31 38.24823 -108.56115 36681 ft 575 kts 62°
2026-04-26 00:32 38.28380 -108.46994 36670 ft 576 kts 62°
2026-04-26 00:32 38.33089 -108.34846 36664 ft 573 kts 62°
2026-04-26 00:33 38.36614 -108.25729 36669 ft 574 kts 62°
2026-04-26 00:33 38.40706 -108.15110 36764 ft 574 kts 62°
2026-04-26 00:34 38.44216 -108.05966 36821 ft 575 kts 62°
2026-04-26 00:34 38.47153 -107.98301 36853 ft 574 kts 62°
2026-04-26 00:35 38.50610 -107.89115 36853 ft 574 kts 62°
2026-04-26 00:35 38.54076 -107.79947 36671 ft 573 kts 62°
2026-04-26 00:36 38.57532 -107.70743 36691 ft 577 kts 62°
2026-04-26 00:36 38.60993 -107.61507 36687 ft 576 kts 62°
2026-04-26 00:37 38.64448 -107.52262 36715 ft 576 kts 62°
2026-04-26 00:37 38.67893 -107.43086 36734 ft 577 kts 62°
2026-04-26 00:38 38.71414 -107.33863 36725 ft 575 kts 62°
2026-04-26 00:38 38.74874 -107.24632 36750 ft 573 kts 62°
2026-04-26 00:39 38.78342 -107.15452 36355 ft 570 kts 62°
2026-04-26 00:39 38.80049 -107.10892 35945 ft 566 kts 62°
2026-04-26 00:39 38.81746 -107.06348 35489 ft 564 kts 62°
2026-04-26 00:40 38.83443 -107.01816 35053 ft 563 kts 62°
2026-04-26 00:40 38.85133 -106.97300 34584 ft 561 kts 63°
2026-04-26 00:40 38.86815 -106.92792 34126 ft 560 kts 63°
2026-04-26 00:40 38.88493 -106.88282 33648 ft 559 kts 63°
2026-04-26 00:41 38.90168 -106.83775 33104 ft 559 kts 63°
2026-04-26 00:41 38.91840 -106.79275 32563 ft 558 kts 63°
2026-04-26 00:41 38.93511 -106.74771 32000 ft 558 kts 63°
2026-04-26 00:41 38.95169 -106.70289 31535 ft 551 kts 63°
2026-04-26 00:42 38.96790 -106.65899 31211 ft 536 kts 63°
2026-04-26 00:42 38.98371 -106.61617 30893 ft 525 kts 63°
2026-04-26 00:42 38.99923 -106.57408 30527 ft 517 kts 63°
2026-04-26 00:42 39.01448 -106.53261 30110 ft 510 kts 64°
2026-04-26 00:43 39.02947 -106.49151 29655 ft 504 kts 64°
2026-04-26 00:43 39.04430 -106.45091 29160 ft 499 kts 63°
2026-04-26 00:43 39.05898 -106.41076 28597 ft 493 kts 64°
2026-04-26 00:43 39.07347 -106.37103 28080 ft 488 kts 64°
2026-04-26 00:44 39.08764 -106.33217 27596 ft 483 kts 64°
2026-04-26 00:44 39.10200 -106.29266 27139 ft 478 kts 64°
2026-04-26 00:44 39.11581 -106.25459 26681 ft 473 kts 64°
2026-04-26 00:44 39.12968 -106.21637 26213 ft 469 kts 64°
2026-04-26 00:45 39.14342 -106.17848 25746 ft 465 kts 64°
2026-04-26 00:45 39.15702 -106.14087 25262 ft 461 kts 65°
2026-04-26 00:45 39.17044 -106.10359 24778 ft 457 kts 65°
2026-04-26 00:45 39.18375 -106.06651 24294 ft 453 kts 65°
2026-04-26 00:46 39.19692 -106.02981 23826 ft 450 kts 65°
2026-04-26 00:46 39.21001 -105.99334 23339 ft 447 kts 65°
2026-04-26 00:46 39.22297 -105.95721 22841 ft 441 kts 65°
2026-04-26 00:46 39.23575 -105.92146 22308 ft 436 kts 65°
2026-04-26 00:47 39.24840 -105.88615 21859 ft 432 kts 65°
2026-04-26 00:47 39.26105 -105.85120 21400 ft 427 kts 65°
2026-04-26 00:47 39.27356 -105.81664 20944 ft 423 kts 65°
2026-04-26 00:47 39.28586 -105.78240 20527 ft 419 kts 65°
2026-04-26 00:48 39.29798 -105.74855 20188 ft 412 kts 65°
2026-04-26 00:48 39.30993 -105.71526 19849 ft 403 kts 65°
2026-04-26 00:48 39.32163 -105.68268 19359 ft 397 kts 66°
2026-04-26 00:48 39.33317 -105.65059 18866 ft 391 kts 65°
2026-04-26 00:49 39.34475 -105.61903 18391 ft 388 kts 64°
2026-04-26 00:49 39.35631 -105.58766 17906 ft 383 kts 64°
2026-04-26 00:49 39.36744 -105.55714 17358 ft 370 kts 64°
2026-04-26 00:49 39.37816 -105.52754 16907 ft 354 kts 64°
2026-04-26 00:50 39.38847 -105.49919 16900 ft 347 kts 64°
2026-04-26 00:50 39.39878 -105.47088 16908 ft 347 kts 64°
2026-04-26 00:50 39.40911 -105.44248 16910 ft 349 kts 64°
2026-04-26 00:50 39.41700 -105.41348 16918 ft 347 kts 83°
2026-04-26 00:51 39.41871 -105.38234 16915 ft 347 kts 92°
2026-04-26 00:51 39.41790 -105.35120 16937 ft 346 kts 95°
2026-04-26 00:51 39.41690 -105.32006 16934 ft 347 kts 92°
2026-04-26 00:51 39.41713 -105.28873 16668 ft 347 kts 90°
2026-04-26 00:52 39.41786 -105.25766 16339 ft 344 kts 91°
2026-04-26 00:52 39.41810 -105.22719 16021 ft 330 kts 92°
2026-04-26 00:52 39.41805 -105.19847 15709 ft 309 kts 92°
2026-04-26 00:52 39.41811 -105.17141 15395 ft 294 kts 92°
2026-04-26 00:53 39.41827 -105.14551 15103 ft 283 kts 92°
2026-04-26 00:53 39.41839 -105.12020 14828 ft 280 kts 92°
2026-04-26 00:53 39.41847 -105.09499 14577 ft 280 kts 93°
2026-04-26 00:53 39.41856 -105.06999 14314 ft 277 kts 92°
2026-04-26 00:54 39.41865 -105.04516 14046 ft 275 kts 93°
2026-04-26 00:54 39.41874 -105.02047 13787 ft 274 kts 93°
2026-04-26 00:54 39.41881 -104.99591 13525 ft 272 kts 93°
2026-04-26 00:54 39.41889 -104.97169 13252 ft 267 kts 93°
2026-04-26 00:55 39.41897 -104.94772 12994 ft 266 kts 92°
2026-04-26 00:55 39.42087 -104.92393 12734 ft 269 kts 86°
2026-04-26 00:55 39.42297 -104.89946 12504 ft 270 kts 86°
2026-04-26 00:55 39.42501 -104.87534 12239 ft 268 kts 86°
2026-04-26 00:56 39.42712 -104.85145 11969 ft 266 kts 86°
2026-04-26 00:56 39.42924 -104.82780 11704 ft 262 kts 86°
2026-04-26 00:56 39.43131 -104.80445 11445 ft 259 kts 86°
2026-04-26 00:56 39.43336 -104.78131 11184 ft 256 kts 87°
2026-04-26 00:57 39.43617 -104.75851 10961 ft 257 kts 73°
2026-04-26 00:57 39.44279 -104.73685 10971 ft 258 kts 70°
2026-04-26 00:57 39.44977 -104.71527 10974 ft 259 kts 71°
2026-04-26 00:57 39.45876 -104.69497 10976 ft 264 kts 47°
2026-04-26 00:58 39.47406 -104.68216 10982 ft 267 kts 19°
2026-04-26 00:58 39.49217 -104.67673 10982 ft 266 kts 11°
2026-04-26 00:58 39.50991 -104.66937 10983 ft 270 kts 17°
2026-04-26 00:58 39.52801 -104.66417 10990 ft 267 kts
2026-04-26 00:59 39.54655 -104.66330 10768 ft 265 kts 358°
2026-04-26 00:59 39.56506 -104.66330 10471 ft 266 kts 358°
2026-04-26 00:59 39.58275 -104.66316 10140 ft 250 kts 359°
2026-04-26 00:59 39.59975 -104.66296 9798 ft 239 kts 359°
2026-04-26 01:00 39.61600 -104.66278 9451 ft 231 kts 360°
2026-04-26 01:00 39.63186 -104.66260 9125 ft 224 kts
2026-04-26 01:00 39.64727 -104.66242 8837 ft 223 kts
2026-04-26 01:00 39.66277 -104.66226 8564 ft 222 kts
2026-04-26 01:01 39.67807 -104.66210 8315 ft 218 kts
2026-04-26 01:01 39.69324 -104.66193 8060 ft 219 kts
2026-04-26 01:01 39.70836 -104.66177 7775 ft 217 kts
2026-04-26 01:01 39.72326 -104.66162 7499 ft 214 kts
2026-04-26 01:02 39.73805 -104.66145 7206 ft 210 kts
2026-04-26 01:02 39.75233 -104.66133 6973 ft 195 kts
2026-04-26 01:02 39.76500 -104.66136 6856 ft 175 kts
2026-04-26 01:02 39.77710 -104.66159 6613 ft 171 kts
2026-04-26 01:03 39.78871 -104.66128 6331 ft 163 kts
2026-04-26 01:03 39.79954 -104.66101 6086 ft 150 kts
2026-04-26 01:03 39.80979 -104.66078 5813 ft 144 kts
2026-04-26 01:03 39.81985 -104.66077 5538 ft 145 kts
2026-04-26 01:04 39.82958 -104.66066 5391 ft 138 kts
2026-04-26 01:04 39.83735 -104.66043 5371 ft 78 kts
2026-04-26 01:04 39.84205 -104.66039 5374 ft 57 kts
2026-04-26 01:04 39.84532 -104.66034 5375 ft 38 kts
2026-04-26 01:05 39.84741 -104.66062 5374 ft 23 kts 347°
2026-04-26 01:05 39.84840 -104.66111 5374 ft 11 kts 332°
2026-04-26 01:05 39.84920 -104.66165 5374 ft 15 kts 332°
2026-04-26 01:05 39.85028 -104.66227 5374 ft 18 kts 346°
2026-04-26 01:06 39.85164 -104.66241 5374 ft 21 kts
2026-04-26 01:06 39.85326 -104.66238 5375 ft 27 kts
2026-04-26 01:06 39.85499 -104.66235 5375 ft 19 kts
2026-04-26 01:06 39.85577 -104.66266 5375 ft 8 kts 299°
2026-04-26 01:07 39.85584 -104.66369 5376 ft 18 kts 270°
2026-04-26 01:07 39.85584 -104.66555 5376 ft 21 kts 270°
2026-04-26 01:07 39.85601 -104.66738 5372 ft 20 kts 293°
2026-04-26 01:07 39.85657 -104.66899 5375 ft 19 kts 281°
2026-04-26 01:08 39.85662 -104.67070 5374 ft 19 kts 270°
2026-04-26 01:08 39.85661 -104.67240 5376 ft 16 kts 270°
2026-04-26 01:08 39.85678 -104.67286 5375 ft 4 kts 337°
2026-04-26 01:08 39.85711 -104.67287 5374 ft 6 kts
2026-04-26 01:09 39.85750 -104.67283 5375 ft 6 kts
2026-04-26 01:09 39.85784 -104.67283 5374 ft 3 kts
2026-04-26 01:09 39.85797 -104.67283 5375 ft 1 kts
2026-04-26 01:09 39.85802 -104.67283 5375 ft 0 kts